TimeEDT,TemperatureF,Dew PointF,Humidity,Sea Level PressureIn,VisibilityMPH,Wind Direction,Wind SpeedMPH,Gust SpeedMPH,PrecipitationIn,Events,Conditions,WindDirDegrees,DateUTC
12:54 AM,37.9,28.9,70,30.48,10.0,North,4.6,-,N/A,,Clear,10,2012-10-13 04:54:00
1:54 AM,39.0,27.0,62,30.48,10.0,Calm,Calm,-,N/A,,Clear,0,2012-10-13 05:54:00
2:54 AM,35.1,28.9,78,30.47,10.0,Calm,Calm,-,N/A,,Clear,0,2012-10-13 06:54:00
3:54 AM,32.0,28.0,85,30.48,10.0,Calm,Calm,-,N/A,,Clear,0,2012-10-13 07:54:00
4:54 AM,32.0,28.9,88,30.50,10.0,Calm,Calm,-,N/A,,Clear,0,2012-10-13 08:54:00
5:54 AM,30.9,28.0,89,30.52,10.0,Calm,Calm,-,N/A,,Clear,0,2012-10-13 09:54:00
6:54 AM,30.9,28.0,89,30.53,10.0,Calm,Calm,-,N/A,,Clear,0,2012-10-13 10:54:00
7:54 AM,32.0,28.9,88,30.53,10.0,Calm,Calm,-,N/A,,Clear,0,2012-10-13 11:54:00
8:54 AM,36.0,30.0,79,30.54,10.0,Calm,Calm,-,N/A,,Clear,0,2012-10-13 12:54:00
9:54 AM,41.0,30.9,67,30.55,10.0,Calm,Calm,-,N/A,,Clear,0,2012-10-13 13:54:00
10:54 AM,46.0,28.0,50,30.53,10.0,Variable,3.5,-,N/A,,Clear,0,2012-10-13 14:54:00
11:54 AM,50.0,24.1,36,30.52,10.0,Calm,Calm,-,N/A,,Clear,0,2012-10-13 15:54:00
12:54 PM,51.1,25.0,36,30.48,10.0,Calm,Calm,-,N/A,,Clear,0,2012-10-13 16:54:00
1:54 PM,55.0,25.0,31,30.42,10.0,South,5.8,-,N/A,,Clear,190,2012-10-13 17:54:00
2:54 PM,55.0,26.1,33,30.40,10.0,Calm,Calm,-,N/A,,Clear,0,2012-10-13 18:54:00
3:54 PM,57.0,28.9,34,30.39,10.0,Calm,Calm,-,N/A,,Clear,0,2012-10-13 19:54:00
4:54 PM,55.9,30.9,39,30.40,10.0,WSW,8.1,-,N/A,,Clear,240,2012-10-13 20:54:00
5:54 PM,53.1,32.0,45,30.38,10.0,South,8.1,-,N/A,,Clear,190,2012-10-13 21:54:00
6:54 PM,50.0,30.0,46,30.37,10.0,South,4.6,-,N/A,,Clear,180,2012-10-13 22:54:00
7:54 PM,48.0,30.9,52,30.35,10.0,South,3.5,-,N/A,,Clear,170,2012-10-13 23:54:00
8:54 PM,48.0,30.9,52,30.35,10.0,Calm,Calm,-,N/A,,Clear,0,2012-10-14 00:54:00
10:54 PM,46.9,30.9,54,30.32,10.0,Calm,Calm,-,N/A,,Clear,0,2012-10-14 02:54:00
11:54 PM,46.9,35.1,63,30.30,10.0,Calm,Calm,-,N/A,,Clear,0,2012-10-14 03:54:00